Saturday, November 18, 2017, 9:39 PM GMT
Back to Local

CYOY, Valcartier Airport

Location: , , Canada Lat: 46.9
Local Time: 9:39 PM GMT (21:39 GMT) Lon: -71.5
Time Zone: GMT Elev: 551 ft

Show me the last for .
Show Coded

Time T Td Feel RH Dir Speed Gust Alt SLP Vis Weather Sky Remarks
2017-11-18 21:00 27 18 23 68 90° 3 - 29.62 29.65 9 FEW084 SCT092 None
2017-11-18 20:00 25 16 17 68 50° 7 - 29.64 29.67 9 FEW066 FEW072 FEW080 FEW092 Pressure falling rapidly
2017-11-18 19:00 25 16 17 68 170° 7 - 29.72 29.76 9 FEW092 None
2017-11-18 18:00 25 16 20 68 120° 3 - 29.73 29.76 9 CLR None
2017-11-18 17:00 23 14 17 67 100° 5 - 29.76 29.80 9 CLR None
2017-11-18 16:00 21 14 16 73 30° 3 - 29.80 29.84 9 FEW091 None
2017-11-18 15:00 19 12 - 73 - Calm - 29.85 29.89 9 FEW087 FEW097 None
2017-11-18 14:00 16 12 - 85 - Calm - 29.87 29.91 9 FEW093 None
2017-11-18 13:00 14 10 - 85 - Calm - 29.91 29.95 9 FEW067 SCT077 None
2017-11-18 12:00 9 7 - 92 - Calm - 29.93 29.97 9 CLR None
2017-11-18 11:00 10 7 - 84 350° 2 - 29.92 29.96 9 FEW077 FEW084 None
2017-11-18 10:00 12 10 - 92 - Calm - 29.91 29.95 9 CLR None
2017-11-18 09:00 10 7 - 84 - Calm - 29.91 29.95 9 CLR None
2017-11-18 08:00 16 10 - 78 270° 2 - 29.90 29.94 9 FEW082 None
2017-11-18 07:00 16 10 6 78 230° 7 - 29.91 29.95 9 FEW084 None
2017-11-18 06:00 16 10 9 78 250° 5 - 29.92 29.96 9 FEW082 None
2017-11-18 05:00 18 12 4 78 320° 13 - 29.94 29.97 9 FEW077 None
2017-11-18 04:05 18 12 11 78 280° 5 - 29.96 - 9 FEW023 FEW077 None
2017-11-18 04:00 18 12 11 78 290° 5 - 29.96 30.00 9 BKN023 None
2017-11-18 03:43 19 12 13 73 290° 5 - 29.97 - 9 BKN023 None
2017-11-18 03:00 21 14 12 73 300° 8 - 29.97 30.01 9 OVC025 None
2017-11-18 02:00 21 14 14 73 280° 6 - 29.97 30.00 9 OVC025 OVC073 None
2017-11-18 01:00 23 14 15 67 290° 7 - 29.96 30.00 9 OVC025 None
2017-11-18 00:00 23 14 15 67 290° 7 - 29.98 30.01 9 OVC025 None
2017-11-17 23:00 23 16 14 73 280° 8 - 29.96 29.99 9 OVC025 OVC076 None
2017-11-17 22:00 23 14 14 67 300° 8 - 29.95 29.98 9 OVC025 None
2017-11-17 21:44 23 16 15 73 300° 7 - 29.95 - 9 OVC025 None

Support USWX by starting your Amazon purchase here.